Content
SEND FEEDBACK

Daily
Averages
Monthly
Summary
United States of America

EUREKA SPRINGS, ARKANSAS


Home > North America > United States > Arkansas
Elevation: 1417 feet     Latitude: 36 25N     Longitude: 093 46W

WEATHER
 
SELECT A DAY
Number of Records: 354,225;   Date Range: 1/1/95 - 9/18/14
 
SHARE

PRINT THIS DATA

[ ← Previous Day ]
WEATHER ALMANAC - JANUARY 30, 2013
[ Next Day → ]
[ °C ]   °F
Weather ElementAverageHighLow
Temperature35.3 °F46.9 °F (12:57 am)24.1 °F (10:57 pm)
Dewpoint31.8 °F46 °F (12:57 am)19 °F (11:57 pm)
Humidity87.5 %100 % (2:37 am)74 % (7:12 pm)
Barometer29.70 in30.09 in (10:57 pm)29.51 in (12:57 am)
Wind Speed15.3 mph26.5 mph (10:28 am)
Wind Gust38 mph (10:42 am)
Weather ElementAverage
Visibility8.3 mi
Wind DirectionWNW (281.2 °)

Weather ElementTotal
Precipitation0.02 in
Heating Degree Days29.5 (Base 65)
Averaged from 41 records on January 30, 2013
WEATHER CONDITIONS BREAKOUT
WIND DIRECTION BREAKOUT
WEATHER BY HOUR - JANUARY 30, 2013
[ °C ]   °F
Local TimeTemperatureDewpointHumidityBarometerVisibilityWind DirectionWind SpeedGust SpeedPrecipitationEventsConditions
12:57 AM46.9 °F46.0 °F97 %29.51 in10.0 miWest (280°)12.7 mphOvercast
1:04 AM46.4 °F44.6 °F93 %29.54 in9.0 miWest (280°)11.5 mphOvercast
1:09 AM46.4 °F44.6 °F93 %29.53 in9.0 miWest (280°)11.5 mphOvercast
1:57 AM43.0 °F42.1 °F97 %29.52 in10.0 miWest (260°)12.7 mph20.7 mphOvercast
2:37 AM41.0 °F41.0 °F100 %29.54 in7.0 miWest (260°)13.8 mphOvercast
2:42 AM41.0 °F41.0 °F100 %29.54 in4.0 miWest (260°)13.8 mph20.7 mphOvercast
2:57 AM41.0 °F39.9 °F96 %29.55 in5.0 miWest (280°)13.8 mph23.0 mphOvercast
3:18 AM41.0 °F39.2 °F93 %29.57 in2.0 miWest (270°)13.8 mph19.6 mph0.00 inRainLight Rain
3:23 AM41.0 °F39.2 °F93 %29.57 in1.8 miWest (270°)17.3 mph0.00 inRainLight Rain
3:46 AM39.2 °F37.4 °F93 %29.55 in2.0 miWest (280°)17.3 mph23.0 mph0.01 inRainLight Rain
3:57 AM39.0 °F37.9 °F96 %29.54 in2.5 miWest (280°)18.4 mph23.0 mph0.01 inRainLight Rain
4:03 AM39.2 °F37.4 °F93 %29.55 in3.0 miWNW (290°)13.8 mph23.0 mph0.00 inOvercast
4:21 AM37.4 °F37.4 °F100 %29.56 in6.0 miWNW (290°)15.0 mph24.2 mph0.00 inOvercast
4:37 AM37.4 °F35.6 °F93 %29.56 in7.0 miWest (280°)15.0 mph0.00 inOvercast
4:57 AM37.4 °F35.6 °F93 %29.56 in7.0 miWest (280°)13.8 mph0.00 inOvercast
4:59 AM37.0 °F36.0 °F96 %29.57 in7.0 miWest (280°)13.8 mph0.00 inOvercast
5:38 AM37.4 °F35.6 °F93 %29.58 in10.0 miWest (260°)13.8 mph0.00 inOvercast
6:39 AM35.6 °F32.0 °F87 %29.63 in10.0 miWest (270°)19.6 mph27.6 mphOvercast
6:57 AM36.0 °F32.0 °F86 %29.64 in10.0 miWNW (290°)18.4 mph26.5 mph0.00 inRainLight Rain
7:09 AM35.6 °F30.2 °F81 %29.65 in10.0 miWNW (290°)15.0 mph0.00 inOvercast
7:51 AM35.6 °F30.2 °F81 %29.67 in10.0 miWNW (290°)16.1 mph23.0 mph0.00 inOvercast
7:54 AM35.6 °F30.2 °F81 %29.67 in10.0 miWest (270°)15.0 mph23.0 mph0.00 inOvercast
7:57 AM35.1 °F30.0 °F82 %29.68 in10.0 miWNW (290°)17.3 mph23.0 mph0.00 inOvercast
8:07 AM35.6 °F30.2 °F81 %29.69 in10.0 miWNW (290°)16.1 mph23.0 mph0.00 inOvercast
8:57 AM34.0 °F30.9 °F89 %29.70 in10.0 miWest (280°)19.6 mph25.3 mph0.00 inRainLight Rain
9:57 AM33.8 °F28.4 °F81 %29.73 in10.0 miWNW (300°)15.0 mph27.6 mph0.00 inSnowLight Snow
9:59 AM34.0 °F28.9 °F82 %29.73 in10.0 miWNW (300°)18.4 mph27.6 mph0.00 inSnowLight Snow
10:14 AM33.8 °F28.4 °F81 %29.74 in10.0 miWNW (300°)19.6 mph28.8 mph0.00 inRainLight Freezing Rain
10:28 AM32.0 °F28.4 °F87 %29.75 in9.0 miNW (310°)26.5 mph35.7 mph0.00 inRainLight Freezing Rain
10:42 AM32.0 °F28.4 °F87 %29.76 in10.0 miNW (310°)25.3 mph38.0 mph0.00 inOvercast
10:57 AM32.0 °F28.0 °F85 %29.78 in10.0 miWNW (300°)18.4 mph27.6 mph0.00 inOvercast
11:57 AM30.9 °F25.0 °F79 %29.82 in10.0 miWNW (290°)18.4 mph33.4 mphOvercast
12:57 PM30.0 °F24.1 °F79 %29.84 in10.0 miWNW (300°)18.4 mph26.5 mphOvercast
1:57 PM28.9 °F24.1 °F82 %29.87 in10.0 miWNW (290°)18.4 mphOvercast
2:57 PM28.0 °F23.0 °F81 %29.91 in10.0 miWest (270°)19.6 mph27.6 mphOvercast
4:57 PM28.0 °F21.9 °F78 %29.96 in10.0 miWest (280°)17.3 mph23.0 mphOvercast
7:12 PM28.4 °F21.2 °F74 %29.99 in10.0 miWest (280°)9.2 mph19.6 mphOvercast
8:57 PM26.1 °F19.9 °F78 %30.05 in10.0 miWest (280°)5.8 mphClear
9:57 PM25.0 °F19.9 °F81 %30.06 in10.0 miWest (260°)5.8 mphClear
10:57 PM24.1 °F19.9 °F84 %30.09 in10.0 miWest (260°)5.8 mphClear
11:57 PM24.1 °F19.0 °F81 %30.08 in10.0 miWSW (250°)4.6 mphClear
Hourly data recorded from KROG, located miles away from Eureka Springs, Arkansas







STORIES FROM OUR PARTNERS